Costa Victoria — IBLC — position and weather

sailwx.info

Track history (hours):
 
Tides and Currents Weather Stations Pressure Air Temp Water Temp Dewpoint Dewpoint Depression Visibility Wind Speed Wind Dir Waves Ship Positions

Costa Victoria

Last reported at 2017-Apr-28 14:42 UTC. Time now 2017-Apr-29 13:25 UTC.
Position N 24°24' E 119°03'.

Length 253 m; draft 8 m.

Type: Ship. MMSI: 247109000.

Date/timePositionNaut miles runAvg speedWind from/ knotsBaromVisibWave heightAir tempDewpointWater temp
2017-Apr-28 14:42N 24°24' E 119°03'419.4
2017-Apr-28 14:29N 24°21' E 118°59'4016.6
2017-Apr-28 12:05N 24°14' E 118°16'418.5
2017-Apr-28 11:53N 24°17' E 118°14'615.9
2017-Apr-28 11:30N 24°21' E 118°09'713.1
2017-Apr-28 11:00N 24°26' E 118°04'4 7.3
2017-Apr-28 10:30N 24°29' E 118°04'0 0.0
2017-Apr-28 09:51N 24°29' E 118°04'0 0.0
2017-Apr-28 09:21N 24°29' E 118°04'0 0.0
2017-Apr-28 08:57N 24°29' E 118°04'0 0.0
2017-Apr-28 07:45N 24°29' E 118°04'0 0.0
2017-Apr-28 07:03N 24°29' E 118°04'0 0.0
2017-Apr-28 06:57N 24°29' E 118°04'0 0.0
2017-Apr-28 06:27N 24°29' E 118°04'0 0.0
2017-Apr-28 05:57N 24°29' E 118°04'0 0.0
2017-Apr-28 05:27N 24°29' E 118°04'0 0.0
2017-Apr-28 04:57N 24°29' E 118°04'0 0.0
2017-Apr-28 04:27N 24°29' E 118°04'0 0.0
2017-Apr-28 03:39N 24°29' E 118°04'0 0.0
2017-Apr-28 03:03N 24°29' E 118°04'0 0.0
2017-Apr-28 02:57N 24°29' E 118°04'0 0.0
2017-Apr-28 02:27N 24°29' E 118°04'0 0.0
2017-Apr-28 01:45N 24°29' E 118°04'0 0.0
2017-Apr-28 01:27N 24°29' E 118°04'0 0.0
2017-Apr-28 00:57N 24°29' E 118°04'0 0.0
2017-Apr-28 00:27N 24°29' E 118°04'0 0.0
2017-Apr-27 23:57N 24°29' E 118°04'0 0.0
2017-Apr-27 23:27N 24°29' E 118°04'0 0.0
2017-Apr-27 22:57N 24°29' E 118°04'1 1.5
2017-Apr-27 22:30N 24°29' E 118°04'4 8.5
2017-Apr-27 22:00N 24°25' E 118°05'510.3
2017-Apr-27 21:31N 24°21' E 118°09'5 9.7
2017-Apr-27 21:00N 24°18' E 118°13'510.1
2017-Apr-27 20:30N 24°16' E 118°18'4 8.0
2017-Apr-27 20:00N 24°12' E 118°18'4 7.7
2017-Apr-27 19:30N 24°10' E 118°22'4 8.1
2017-Apr-27 19:00N 24°11' E 118°27'4 7.9
2017-Apr-27 18:30N 24°10' E 118°31'4 7.4
2017-Apr-27 17:57N 24°10' E 118°36'4 7.7
2017-Apr-27 17:23N 24°10' E 118°40'15 8.7
2017-Apr-27 15:39N 24°16' E 118°55'1 9.2
2017-Apr-27 15:30N 24°17' E 118°57'6 8.9
2017-Apr-27 14:49N 24°20' E 119°03'  
2017-Apr-23 10:00N 24°14' E 118°16'714.7
2017-Apr-23 09:30N 24°20' E 118°11'612.1
2017-Apr-23 09:00N 24°24' E 118°06'510.3
2017-Apr-23 08:30N 24°28' E 118°03'1 1.6
2017-Apr-23 07:52N 24°29' E 118°04'0 0.0
2017-Apr-23 07:28N 24°29' E 118°04'0 0.0
2017-Apr-23 06:52N 24°29' E 118°04'0 0.0
2017-Apr-23 06:28N 24°29' E 118°04'0 0.0
2017-Apr-23 05:52N 24°29' E 118°04'0 0.0
2017-Apr-23 05:28N 24°29' E 118°04'0 0.0
2017-Apr-23 04:58N 24°29' E 118°04'0 0.0
2017-Apr-23 04:28N 24°29' E 118°04'0 0.0
2017-Apr-23 03:46N 24°29' E 118°04'0 0.0
2017-Apr-23 03:22N 24°29' E 118°04'0 0.0
2017-Apr-23 02:58N 24°29' E 118°04'0 0.0
2017-Apr-23 02:28N 24°29' E 118°04'0 0.0
2017-Apr-23 01:46N 24°29' E 118°04'0 0.0
2017-Apr-23 01:28N 24°29' E 118°04'0 0.0
2017-Apr-23 00:49N 24°29' E 118°04'0 0.0
2017-Apr-23 00:16N 24°29' E 118°04'0 0.1
2017-Apr-23 00:00N 24°29' E 118°04'3 5.2
2017-Apr-22 23:30N 24°27' E 118°03'612.8
2017-Apr-22 23:01N 24°22' E 118°08'510.1
2017-Apr-22 22:30N 24°19' E 118°12'714.0
2017-Apr-22 22:00N 24°14' E 118°17'815.8
2017-Apr-22 21:30N 24°11' E 118°25'915.3
2017-Apr-22 20:56N 24°11' E 118°35'14 7.5
2017-Apr-22 19:06N 24°14' E 118°49'5 7.6
2017-Apr-22 18:27N 24°16' E 118°54'3 7.6
2017-Apr-22 18:01N 24°18' E 118°57'5 7.7
2017-Apr-22 17:21N 24°20' E 119°02'  
2017-Apr-19 19:22N 24°10' E 118°39'4 8.5
2017-Apr-19 18:55N 24°10' E 118°34'4 8.4
2017-Apr-19 18:28N 24°10' E 118°30'4 8.2
2017-Apr-19 18:00N 24°10' E 118°26'713.5
2017-Apr-19 17:30N 24°12' E 118°19'714.6
2017-Apr-19 17:00N 24°17' E 118°13'714.5
2017-Apr-19 16:30N 24°22' E 118°08'612.5
2017-Apr-19 16:01N 24°26' E 118°03'3 6.4
2017-Apr-19 15:30N 24°29' E 118°04'0 0.0
2017-Apr-19 14:54N 24°29' E 118°04'0 0.0
2017-Apr-19 14:30N 24°29' E 118°04'0 0.0
2017-Apr-19 13:18N 24°29' E 118°04'0 0.0
2017-Apr-19 12:54N 24°29' E 118°04'0 0.0
2017-Apr-19 12:30N 24°29' E 118°04'0 0.0
2017-Apr-19 12:00N 24°29' E 118°04'0 0.0
2017-Apr-19 11:30N 24°29' E 118°04'0 0.0
2017-Apr-19 10:45N 24°29' E 118°04'0 0.0
2017-Apr-19 10:30N 24°29' E 118°04'0 0.0
2017-Apr-19 10:00N 24°29' E 118°04'3 6.2
2017-Apr-19 09:30N 24°26' E 118°03'612.2
2017-Apr-19 09:00N 24°22' E 118°08'611.2
2017-Apr-19 08:31N 24°18' E 118°12'815.5
2017-Apr-19 08:00N 24°12' E 118°16'3 5.0
2017-Apr-19 07:29N 24°09' E 118°17'0 0.0
2017-Apr-19 06:05N 24°09' E 118°17'0 0.6
2017-Apr-19 05:59N 24°09' E 118°17'0 0.1
2017-Apr-19 05:23N 24°09' E 118°17'0 0.0
2017-Apr-19 04:41N 24°09' E 118°17'0 0.1
2017-Apr-19 04:29N 24°09' E 118°17'3 7.1
2017-Apr-19 04:00N 24°09' E 118°21'815.5
2017-Apr-19 03:29N 24°11' E 118°29'918.0
2017-Apr-19 03:00N 24°11' E 118°39'1617.4
2017-Apr-19 02:07N 24°18' E 118°54'518.0
2017-Apr-19 01:50N 24°21' E 118°58'617.5
2017-Apr-19 01:30N 24°24' E 119°03'1117.6
2017-Apr-19 00:52N 24°30' E 119°14'  
Track history (hours):
 
Tides and Currents Weather Stations Pressure Air Temp Water Temp Dewpoint Dewpoint Depression Visibility Wind Speed Wind Dir Waves Ship Positions

Costa Victoria

Last reported at 2017-Apr-28 14:42 UTC. Time now 2017-Apr-29 13:25 UTC.
Position N 24°24' E 119°03'.

Length 253 m; draft 8 m.

Type: Ship. MMSI: 247109000.

Date/timePositionNaut miles runAvg speedWind from/ knotsBaromVisibWave heightAir tempDewpointWater temp
2017-Apr-28 14:42N 24°24' E 119°03'419.4
2017-Apr-28 14:29N 24°21' E 118°59'4016.6
2017-Apr-28 12:05N 24°14' E 118°16'418.5
2017-Apr-28 11:53N 24°17' E 118°14'615.9
2017-Apr-28 11:30N 24°21' E 118°09'713.1
2017-Apr-28 11:00N 24°26' E 118°04'4 7.3
2017-Apr-28 10:30N 24°29' E 118°04'0 0.0
2017-Apr-28 09:51N 24°29' E 118°04'0 0.0
2017-Apr-28 09:21N 24°29' E 118°04'0 0.0
2017-Apr-28 08:57N 24°29' E 118°04'0 0.0
2017-Apr-28 07:45N 24°29' E 118°04'0 0.0
2017-Apr-28 07:03N 24°29' E 118°04'0 0.0
2017-Apr-28 06:57N 24°29' E 118°04'0 0.0
2017-Apr-28 06:27N 24°29' E 118°04'0 0.0
2017-Apr-28 05:57N 24°29' E 118°04'0 0.0
2017-Apr-28 05:27N 24°29' E 118°04'0 0.0
2017-Apr-28 04:57N 24°29' E 118°04'0 0.0
2017-Apr-28 04:27N 24°29' E 118°04'0 0.0
2017-Apr-28 03:39N 24°29' E 118°04'0 0.0
2017-Apr-28 03:03N 24°29' E 118°04'0 0.0
2017-Apr-28 02:57N 24°29' E 118°04'0 0.0
2017-Apr-28 02:27N 24°29' E 118°04'0 0.0
2017-Apr-28 01:45N 24°29' E 118°04'0 0.0
2017-Apr-28 01:27N 24°29' E 118°04'0 0.0
2017-Apr-28 00:57N 24°29' E 118°04'0 0.0
2017-Apr-28 00:27N 24°29' E 118°04'0 0.0
2017-Apr-27 23:57N 24°29' E 118°04'0 0.0
2017-Apr-27 23:27N 24°29' E 118°04'0 0.0
2017-Apr-27 22:57N 24°29' E 118°04'1 1.5
2017-Apr-27 22:30N 24°29' E 118°04'4 8.5
2017-Apr-27 22:00N 24°25' E 118°05'510.3
2017-Apr-27 21:31N 24°21' E 118°09'5 9.7
2017-Apr-27 21:00N 24°18' E 118°13'510.1
2017-Apr-27 20:30N 24°16' E 118°18'4 8.0
2017-Apr-27 20:00N 24°12' E 118°18'4 7.7
2017-Apr-27 19:30N 24°10' E 118°22'4 8.1
2017-Apr-27 19:00N 24°11' E 118°27'4 7.9
2017-Apr-27 18:30N 24°10' E 118°31'4 7.4
2017-Apr-27 17:57N 24°10' E 118°36'4 7.7
2017-Apr-27 17:23N 24°10' E 118°40'15 8.7
2017-Apr-27 15:39N 24°16' E 118°55'1 9.2
2017-Apr-27 15:30N 24°17' E 118°57'6 8.9
2017-Apr-27 14:49N 24°20' E 119°03'  
2017-Apr-23 10:00N 24°14' E 118°16'714.7
2017-Apr-23 09:30N 24°20' E 118°11'612.1
2017-Apr-23 09:00N 24°24' E 118°06'510.3
2017-Apr-23 08:30N 24°28' E 118°03'1 1.6
2017-Apr-23 07:52N 24°29' E 118°04'0 0.0
2017-Apr-23 07:28N 24°29' E 118°04'0 0.0
2017-Apr-23 06:52N 24°29' E 118°04'0 0.0
2017-Apr-23 06:28N 24°29' E 118°04'0 0.0
2017-Apr-23 05:52N 24°29' E 118°04'0 0.0
2017-Apr-23 05:28N 24°29' E 118°04'0 0.0
2017-Apr-23 04:58N 24°29' E 118°04'0 0.0
2017-Apr-23 04:28N 24°29' E 118°04'0 0.0
2017-Apr-23 03:46N 24°29' E 118°04'0 0.0
2017-Apr-23 03:22N 24°29' E 118°04'0 0.0
2017-Apr-23 02:58N 24°29' E 118°04'0 0.0
2017-Apr-23 02:28N 24°29' E 118°04'0 0.0
2017-Apr-23 01:46N 24°29' E 118°04'0 0.0
2017-Apr-23 01:28N 24°29' E 118°04'0 0.0
2017-Apr-23 00:49N 24°29' E 118°04'0 0.0
2017-Apr-23 00:16N 24°29' E 118°04'0 0.1
2017-Apr-23 00:00N 24°29' E 118°04'3 5.2
2017-Apr-22 23:30N 24°27' E 118°03'612.8
2017-Apr-22 23:01N 24°22' E 118°08'510.1
2017-Apr-22 22:30N 24°19' E 118°12'714.0
2017-Apr-22 22:00N 24°14' E 118°17'815.8
2017-Apr-22 21:30N 24°11' E 118°25'915.3
2017-Apr-22 20:56N 24°11' E 118°35'14 7.5
2017-Apr-22 19:06N 24°14' E 118°49'5 7.6
2017-Apr-22 18:27N 24°16' E 118°54'3 7.6
2017-Apr-22 18:01N 24°18' E 118°57'5 7.7
2017-Apr-22 17:21N 24°20' E 119°02'  
2017-Apr-19 19:22N 24°10' E 118°39'4 8.5
2017-Apr-19 18:55N 24°10' E 118°34'4 8.4
2017-Apr-19 18:28N 24°10' E 118°30'4 8.2
2017-Apr-19 18:00N 24°10' E 118°26'713.5
2017-Apr-19 17:30N 24°12' E 118°19'714.6
2017-Apr-19 17:00N 24°17' E 118°13'714.5
2017-Apr-19 16:30N 24°22' E 118°08'612.5
2017-Apr-19 16:01N 24°26' E 118°03'3 6.4
2017-Apr-19 15:30N 24°29' E 118°04'0 0.0
2017-Apr-19 14:54N 24°29' E 118°04'0 0.0
2017-Apr-19 14:30N 24°29' E 118°04'0 0.0
2017-Apr-19 13:18N 24°29' E 118°04'0 0.0
2017-Apr-19 12:54N 24°29' E 118°04'0 0.0
2017-Apr-19 12:30N 24°29' E 118°04'0 0.0
2017-Apr-19 12:00N 24°29' E 118°04'0 0.0
2017-Apr-19 11:30N 24°29' E 118°04'0 0.0
2017-Apr-19 10:45N 24°29' E 118°04'0 0.0
2017-Apr-19 10:30N 24°29' E 118°04'0 0.0
2017-Apr-19 10:00N 24°29' E 118°04'3 6.2
2017-Apr-19 09:30N 24°26' E 118°03'612.2
2017-Apr-19 09:00N 24°22' E 118°08'611.2
2017-Apr-19 08:31N 24°18' E 118°12'815.5
2017-Apr-19 08:00N 24°12' E 118°16'3 5.0
2017-Apr-19 07:29N 24°09' E 118°17'0 0.0
2017-Apr-19 06:05N 24°09' E 118°17'0 0.6
2017-Apr-19 05:59N 24°09' E 118°17'0 0.1
2017-Apr-19 05:23N 24°09' E 118°17'0 0.0
2017-Apr-19 04:41N 24°09' E 118°17'0 0.1
2017-Apr-19 04:29N 24°09' E 118°17'3 7.1
2017-Apr-19 04:00N 24°09' E 118°21'815.5
2017-Apr-19 03:29N 24°11' E 118°29'918.0
2017-Apr-19 03:00N 24°11' E 118°39'1617.4
2017-Apr-19 02:07N 24°18' E 118°54'518.0
2017-Apr-19 01:50N 24°21' E 118°58'617.5
2017-Apr-19 01:30N 24°24' E 119°03'1117.6
2017-Apr-19 00:52N 24°30' E 119°14'  

Dump ship's entire track history